Location: Detroit
(42.3310°N, 83.0460°W)
Time: 15:08:46
(UTC-04:00)

Courier 1B Rocket - Pass Details

Date: 27 April 2024
Orbit: 920 x 1201 km, 28.2° (Epoch: 19 May)

Event Time Altitude Azimuth Distance (km) Brightness Sun altitude
Exits shadow 05:24:22 15° 232° (SW) 2,740 6.7 -12.1°
Maximum altitude 05:29:07 27° 186° (S) 2,080 6.4 -11.4°
Drops below altitude 10° 05:35:09 10° 132° (SE) 3,011 7.8 -10.4°
Sets 05:38:20 0° 120° (ESE) 3,926 8.6 -9.9°
